This is the latest recevied weather packets stored in our database for station/object K1AWR. If no packets are shown the sender has not sent any weather packets the latest 10 day(s).
| Time | Temp. | Humidity | Pressure | Rain* | Wind** | Luminosity | Snow |
|---|---|---|---|---|---|---|---|
| 1777315357 | 24.44° C | 27% | 1023.4 hPa | 0 mm | - | 679 W/m² | - |
| 1777315055 | 22.78° C | 26% | 1023.5 hPa | 0 mm | - | 688 W/m² | - |
| 1777314754 | 23.89° C | 33% | 1023.6 hPa | 0 mm | - | 698 W/m² | - |
| 1777314452 | 23.33° C | 27% | 1023.7 hPa | 0 mm | - | 706 W/m² | - |
| 1777314148 | 23.89° C | 27% | 1023.9 hPa | 0 mm | - | 713 W/m² | - |
| 1777313847 | 24.44° C | 26% | 1024 hPa | 0 mm | - | 721 W/m² | - |
| 1777313543 | 23.33° C | 26% | 1023.9 hPa | 0 mm | - | 727 W/m² | - |
| 1777313241 | 22.22° C | 31% | 1023.9 hPa | 0 mm | - | 733 W/m² | - |
| 1777312937 | 22.78° C | 28% | 1023.9 hPa | 0 mm | - | 738 W/m² | - |
| 1777312633 | 23.33° C | 32% | 1024 hPa | 0 mm | - | 747 W/m² | - |
| 1777312331 | 22.78° C | 33% | 1024.1 hPa | 0 mm | - | 754 W/m² | - |
| 1777312028 | 23.89° C | 32% | 1024 hPa | 0 mm | - | 756 W/m² | - |
| 1777311724 | 23.89° C | 29% | 1024.1 hPa | 0 mm | - | 762 W/m² | - |
| 1777311422 | 22.78° C | 30% | 1024.2 hPa | 0 mm | - | 765 W/m² | - |
| 1777311119 | 22.22° C | 33% | 1024.1 hPa | 0 mm | - | 765 W/m² | - |
| 1777310818 | 21.67° C | 33% | 1024 hPa | 0 mm | - | 772 W/m² | - |
| 1777310514 | 22.78° C | 31% | 1024.1 hPa | 0 mm | - | 776 W/m² | - |
| 1777310211 | 22.78° C | 33% | 1024.3 hPa | 0 mm | - | 774 W/m² | - |
| 1777309909 | 22.78° C | 31% | 1024.3 hPa | 0 mm | - | 783 W/m² | - |
| 1777309607 | 22.78° C | 31% | 1024.3 hPa | 0 mm | - | 783 W/m² | - |
| 1777309304 | 23.33° C | 33% | 1024.5 hPa | 0 mm | - | 783 W/m² | - |
| 1777309002 | 21.67° C | 38% | 1024.3 hPa | 0 mm | - | 785 W/m² | - |
| 1777308697 | 21.67° C | 38% | 1024.4 hPa | 0 mm | - | 785 W/m² | - |
| 1777308393 | 22.22° C | 33% | 1024.5 hPa | 0 mm | - | 784 W/m² | - |
| 1777308088 | 21.67° C | 34% | 1024.4 hPa | 0 mm | - | 785 W/m² | - |
* Rain latest hour (hover to see other rain measurements)
** Current wind speed in m/s (hover to see current wind gust speed)